ダニエル彗星

33P/Daniel (2000)

English version
Home page
Updated on June 3, 2001

---------------------------------------------------------------------

・ プロフィール

・ 軌道要素

   The following improved orbital elements by Kenji Muraoka, 
  are from 60 observations 1979 to 2001, including 9 Planets, 
  Moon and 5 minor planets perturbations and non-gravitational 
  effect of style II. The mean residual is +/- 0.88 arc seconds.

      Epoch  =  2000 June 25.0  TT       JDT = 2451720.5
          T  =  2000 June 23.46617       +/- 0.01221 (m.e.) TT
       Peri. =   18.98768                +/- 0.00074
       Node  =   66.58265                +/- 0.00017   (2000.0)
       Incl. =   22.41004                +/- 0.00011
          q  =    2.1572385              +/- 0.0000139 AU
          e  =    0.4635952              +/- 0.0000031
          a  =    4.0216611              +/- 0.0000087 AU
          n  =    0.12220694             +/- 0.00000040
          P  =    8.065                  +/- 0.0000262  years
         A1  =   +0.295                  +/- 0.025
         A2  =   +0.07272                +/- 0.00093

・ 星図

・ 光度変化

        m1 =  10.5 + 5 logΔ + 15.0 log r  [   ,270]  (              〜2001年03月20日)
        m1 = -13.5 + 5 logΔ + 60   log r  [270,380]  (2001年03月20日〜2001年07月08日)
        m1 =  10.5 + 5 logΔ + 15.0 log r  [380,   ]  (2001年07月08日〜              )

---------------------------------------------------------------------

軌道要素は村岡健治氏の計算によるものです。
星図は StellaNavigator Ver.2.0 for Windows (アストロアーツ 編著 / アスキー出版局刊) で作成したものです。
光度グラフはComet for Windowsで作成したものです。

---------------------------------------------------------------------

Copyright(C) Seiichi Yoshida (comet@aerith.net). All rights reserved.